[[{"header":{"parameterUnit":"m.s-1","parameterCategory":1,"la1":30.2992,"la2":30.254,"lo1":-89.0895,"lo2":-89.0443,"dy":0.0025,"dx":0.0025,"nx":19,"ny":19,"refTime":"2026-04-20T03:00:00:Z","depth":0,"parameterNumber":2,"parameterNumberName":"U-component_of_WINDS"},"data":[0,0,0,-4.7321,-4.7326,-4.7499,-4.7499,-4.7779,-4.7782,0,0,0,0,0,0,0,0,0,0,0,-4.7305,-4.7308,-4.7321,-4.7326,-4.7499,-4.7499,-4.7779,-4.7782,0,0,0,0,0,0,0,0,0,0,0,-4.7304,-4.7307,-4.7311,-4.7327,-4.7499,-4.7499,-4.7778,-4.7627,0,0,0,0,0,0,0,0,0,0,-4.7449,-4.7468,-4.7307,-4.7311,-4.7328,-4.7499,-4.7499,-4.7619,-4.7636,-4.7726,0,-4.7814,0,-4.7803,-4.7805,-4.7806,0,0,0,-4.7301,-4.7454,-4.7468,-4.7312,-4.733,-4.7499,-4.7414,-4.7628,-4.7648,-4.775,-4.7818,-4.7826,-4.7808,-4.7807,-4.7809,-4.8412,-4.8416,0,0,-4.7291,-4.7355,-4.7455,-4.7483,-4.7459,-4.7408,-4.7419,-4.7639,-4.7718,-4.7818,-4.7832,-4.7812,-4.7809,-4.7812,-4.8408,-4.8413,0,0,0,-4.7281,-4.735,-4.7358,-4.7473,-4.75,-4.7414,-4.7427,-4.7708,-4.7705,-4.7835,-4.7816,-4.7811,-4.7815,-4.8403,-4.841,-4.8676,0,0,0,-4.7274,-4.7344,-4.7355,-4.7396,-4.7497,-4.7606,-4.7492,-4.769,-4.7712,-4.7814,-4.7811,-4.7818,-4.8399,-4.8407,-4.8659,-4.8794,0,0,0,-4.7282,-4.7344,-4.7381,-4.74,-4.7476,-4.7601,-4.761,-4.7693,-4.7703,-4.7806,-4.7819,-4.8396,-4.8405,-4.8644,-4.8768,-4.8976,0,0,0,-4.7309,-4.7613,-4.7386,-4.7718,-4.7475,-4.7762,-4.7607,-4.7818,-4.7938,-4.7813,-4.8399,-4.8409,-4.8639,-4.8753,-4.896,-4.9168,-4.9258,0,0,-4.7729,-4.7666,-4.7856,-4.7658,-4.8003,-4.773,-4.8114,-4.8162,-4.8112,-4.8315,-4.8329,-4.8665,-4.8767,-4.8973,-4.973,-4.9803,0,0,0,-4.8012,-4.815,-4.8227,-4.8344,-4.8388,-4.8438,-4.842,-4.8437,-4.8607,-4.8229,-4.8789,-4.8848,-4.8967,-4.9063,-4.9125,-4.9226,-4.8454,-4.8453,-4.8452,-4.8704,-4.8623,-4.8933,-4.8875,-4.899,-4.8968,-4.9055,-4.9076,-4.8959,-4.9093,-4.9156,-4.9625,-4.974,-4.9786,-4.9892,-4.9251,-4.9253,-4.9253,-4.9254,-4.9318,-4.9505,-4.9341,-4.9585,-4.9498,-4.9701,-4.9691,-4.9602,-4.9781,-4.957,-4.9671,-4.9456,-4.9868,-4.9957,-4.9273,-4.927,-4.9268,-4.9266,-4.9264,-4.977,-4.9845,-4.986,-5.0022,-5.0156,-5.0082,-5.0262,-5.0173,-5.0092,-5.019,-5.0251,-5.0246,-5.0237,-5.0223,-5.0225,-5.0227,-5.0228,-5.0229,-5.023,-5.0236,-5.0244,-5.0406,-5.0477,-5.0542,-5.0615,-5.0594,-5.0656,-5.0702,-5.0624,-5.0624,-5.05,-4.992,-4.9782,-5.0255,-5.0251,-5.0248,-5.0245,-5.0244,-5.0904,-5.0738,-5.099,-5.1055,-5.1132,-5.1273,-5.1154,-5.1288,-5.1324,-5.1417,-5.1268,-5.0852,-5.0782,-5.0733,-5.0618,-5.128,-5.128,-5.128,-5.128,-5.1292,-5.1245,-5.1484,-5.1594,-5.169,-5.1609,-5.19,-5.1886,-5.1846,-5.1864,-5.1753,-5.159,-5.1543,-5.1502,-5.1435,-5.1328,-5.2155,-5.2156,-5.2157,-5.1701,-5.166,-5.1925,-5.1882,-5.1934,-5.1983,-5.2254,-5.2389,-5.2307,-5.219,-5.1879,-5.1842,-5.1577,-5.1494,-5.138,-5.1279,-5.1079,0,0]},{"header":{"parameterUnit":"m.s-1","parameterCategory":1,"la1":30.2992,"la2":30.254,"lo1":-89.0895,"lo2":-89.0443,"dy":0.0025,"dx":0.0025,"nx":19,"ny":19,"refTime":"2026-04-20T03:00:00:Z","depth":0,"parameterNumber":3,"parameterNumberName":"V-component_of_WINDS"},"data":[0,0,0,-4.544,-4.5443,-4.5537,-4.5537,-4.5671,-4.5672,0,0,0,0,0,0,0,0,0,0,0,-4.5424,-4.5425,-4.544,-4.5443,-4.5537,-4.5537,-4.5671,-4.5672,0,0,0,0,0,0,0,0,0,0,0,-4.5423,-4.5425,-4.5426,-4.5443,-4.5537,-4.5537,-4.567,-4.5594,0,0,0,0,0,0,0,0,0,0,-4.55,-4.5496,-4.5424,-4.5426,-4.5444,-4.5537,-4.5537,-4.559,-4.5599,-4.5635,0,-4.5673,0,-4.5675,-4.5682,-4.5683,0,0,0,-4.5434,-4.5489,-4.5505,-4.5427,-4.5445,-4.5537,-4.5492,-4.5595,-4.5604,-4.5647,-4.5674,-4.5679,-4.5677,-4.5683,-4.5684,-4.5927,-4.5929,0,0,-4.5429,-4.5446,-4.5498,-4.5512,-4.5501,-4.5489,-4.5495,-4.56,-4.5631,-4.5675,-4.5682,-4.5679,-4.5684,-4.5685,-4.5926,-4.5928,0,0,0,-4.542,-4.5443,-4.5455,-4.5507,-4.5523,-4.5492,-4.5499,-4.5626,-4.5629,-4.5683,-4.5681,-4.5685,-4.5687,-4.5924,-4.5927,-4.602,0,0,0,-4.5416,-4.5438,-4.5454,-4.5465,-4.5521,-4.5576,-4.5523,-4.5622,-4.5633,-4.568,-4.5685,-4.5688,-4.5923,-4.5926,-4.6014,-4.6061,0,0,0,-4.5414,-4.5437,-4.5455,-4.5466,-4.5507,-4.5574,-4.5583,-4.5624,-4.5632,-4.5683,-4.5689,-4.5921,-4.5925,-4.6008,-4.6052,-4.6129,0,0,0,-4.5415,-4.5537,-4.5457,-4.5591,-4.5507,-4.5632,-4.5582,-4.5674,-4.5729,-4.5686,-4.5923,-4.5926,-4.6007,-4.6046,-4.6124,-4.6197,-4.623,0,0,-4.5578,-4.5557,-4.5635,-4.5566,-4.571,-4.5616,-4.5773,-4.5807,-4.5795,-4.5883,-4.5889,-4.6016,-4.6051,-4.6128,-4.6408,-4.6435,0,0,0,-4.5692,-4.5748,-4.5782,-4.5836,-4.5865,-4.5893,-4.59,-4.5912,-4.5986,-4.5845,-4.6065,-4.6085,-4.6129,-4.6164,-4.6186,-4.6222,-4.5943,-4.5943,-4.5943,-4.5948,-4.5926,-4.6052,-4.6042,-4.6094,-4.61,-4.6139,-4.6155,-4.6119,-4.6171,-4.6197,-4.637,-4.6411,-4.6427,-4.6465,-4.6235,-4.6235,-4.6235,-4.6236,-4.6183,-4.6258,-4.6206,-4.6309,-4.6285,-4.637,-4.6379,-4.635,-4.6424,-4.6349,-4.6387,-4.6306,-4.6457,-4.6488,-4.6242,-4.6241,-4.624,-4.624,-4.6239,-4.6348,-4.638,-4.6392,-4.6466,-4.6525,-4.6509,-4.6582,-4.6557,-4.6534,-4.6572,-4.6595,-4.6593,-4.6587,-4.6585,-4.6585,-4.6586,-4.6586,-4.6587,-4.6587,-4.6513,-4.6524,-4.659,-4.663,-4.6659,-4.6695,-4.67,-4.6728,-4.6752,-4.6728,-4.6728,-4.6684,-4.6476,-4.6424,-4.6596,-4.6595,-4.6594,-4.6593,-4.6592,-4.6759,-4.6699,-4.6801,-4.6831,-4.6873,-4.6932,-4.6899,-4.6957,-4.6976,-4.7013,-4.6961,-4.6811,-4.6787,-4.6769,-4.6726,-4.6966,-4.6966,-4.6966,-4.6966,-4.6897,-4.6882,-4.698,-4.7029,-4.7074,-4.7053,-4.7166,-4.717,-4.7165,-4.7174,-4.7136,-4.7076,-4.7059,-4.7045,-4.7021,-4.698,-4.728,-4.728,-4.728,-4.7045,-4.7034,-4.7136,-4.7131,-4.7162,-4.7188,-4.7293,-4.7349,-4.733,-4.7292,-4.7181,-4.7168,-4.7071,-4.7041,-4.7001,-4.6965,-4.6888,0,0]}]]